Theta_e
362 364 365 365 365 366 367 365 364 363 361 360 358 358 360 361 361 362 362 364 363 362 361 361 360 355 354 353 354 356 356 356 358 359 357 351 351 349 346 344 345 341 343
364 366 364 365 365 365 367 366 364 363 361 360 360 360 361 361 362 362 363 364 362 361 359 358 357 353 351 352 354 355 357 356 358 357 356 352 350 348 345 347 346 342 342
364 365 361 365 365 365 367 366 364 362 361 360 361 361 361 361 361 363 364 363 363 361 358 355 353 350 350 350 353 355 357 357 359 357 357 351 350 349 346 345 344 342 340
363 363 359 364 365 365 365 365 364 362 361 360 361 362 361 361 362 362 363 362 362 360 357 354 351 349 349 349 351 353 356 359 360 360 356 354 349 350 347 345 343 342 340
362 360 364 363 364 364 364 364 364 363 362 362 362 362 362 362 363 363 363 362 360 358 357 354 351 349 349 350 351 352 354 358 362 361 357 356 351 349 348 345 342 340 339
359 361 360 363 363 363 363 363 364 364 364 363 363 362 362 362 363 363 363 362 361 358 357 354 351 349 349 349 349 350 351 354 359 360 360 357 355 350 348 345 342 341 339
358 362 356 361 362 362 362 362 363 364 363 363 363 363 362 363 363 363 363 362 361 360 357 354 352 350 348 347 347 349 350 352 354 355 358 358 350 351 347 344 342 340 338
357 360 357 359 359 360 361 361 362 362 363 363 363 363 363 363 362 362 362 362 362 361 359 356 354 351 349 348 348 349 351 350 352 352 351 355 351 352 348 346 342 340 338
355 358 361 355 357 358 359 360 360 361 361 361 361 361 362 362 361 361 361 361 361 361 360 358 355 352 350 349 349 349 350 350 349 351 353 353 353 353 349 346 344 341 339
349 352 358 362 360 356 352 359 359 360 359 360 360 360 361 360 360 359 359 360 361 360 359 358 356 352 350 349 349 349 350 348 347 349 351 353 353 352 350 347 344 342 340
338 342 345 352 356 360 359 360 358 358 358 359 358 359 358 353 351 352 353 356 359 360 358 358 357 354 351 350 350 350 348 340 344 348 350 354 354 353 351 348 345 343 340
327 331 336 343 347 351 352 360 364 361 355 351 349 350 352 347 348 345 350 355 359 359 358 358 357 355 351 339 338 346 336 336 341 345 350 356 356 354 352 349 346 343 341
325 324 326 335 346 348 347 355 361 360 360 359 357 357 356 351 348 346 346 351 354 357 352 354 352 348 343 340 335 338 340 337 341 344 352 356 355 355 353 351 347 344 342
329 332 332 333 336 344 348 349 355 360 363 361 358 362 359 353 354 350 348 349 353 351 351 348 347 349 345 343 341 338 337 336 339 342 351 355 354 356 355 352 349 345 343
331 333 334 337 338 339 341 345 346 352 356 361 361 361 361 358 357 353 353 351 349 347 347 346 345 346 344 344 343 342 338 336 336 339 345 356 354 355 356 354 351 347 344
331 333 335 335 337 337 340 345 351 349 349 347 350 353 361 360 363 357 356 353 351 349 348 346 347 346 345 344 344 343 341 339 336 339 343 355 352 353 355 356 353 349 346
331 334 335 335 335 339 340 340 342 344 346 345 343 355 354 362 365 364 357 357 354 355 352 352 350 349 345 346 348 342 341 341 338 342 346 351 353 352 354 355 355 351 348
331 332 334 334 335 337 340 339 338 336 339 344 345 347 350 356 360 360 358 355 356 357 353 349 347 346 344 345 346 342 341 343 341 343 344 352 355 352 353 354 354 353 351
330 332 333 335 334 336 339 337 338 345 338 336 344 347 353 349 352 359 355 358 361 355 354 350 346 348 345 346 344 344 343 341 343 337 345 353 354 353 352 351 352 351 351
329 332 333 334 336 337 336 337 335 334 335 336 335 339 351 349 350 357 352 358 358 351 351 351 352 347 345 344 342 342 347 344 343 342 344 348 353 351 353 351 350 348 349
328 329 331 332 335 334 332 331 331 331 333 334 338 345 346 349 352 360 350 353 356 351 352 359 353 352 344 347 342 341 342 348 348 342 345 349 348 349 351 353 349 349 345
326 327 329 331 333 334 332 333 333 332 333 333 334 342 343 345 354 354 357 353 356 348 356 358 357 346 345 346 341 339 332 338 342 345 346 346 353 347 347 348 351 351 349
324 325 326 329 332 333 334 333 333 335 335 331 333 334 337 341 343 355 352 353 356 355 347 354 354 352 343 347 349 340 331 327 331 344 349 346 352 349 349 349 349 349 348
322 324 326 328 331 332 334 332 331 327 326 330 332 333 336 340 338 341 350 352 355 353 351 352 351 352 351 343 344 345 348 343 333 341 353 345 347 348 350 346 347 345 344
321 322 326 330 330 332 333 331 326 325 326 328 330 336 339 342 342 337 343 350 353 352 353 353 354 353 349 345 343 342 345 343 339 340 339 336 342 342 344 345 343 341 339
320 321 322 327 330 333 330 330 329 326 325 324 327 326 328 330 335 342 340 343 347 351 351 353 354 354 351 349 347 346 340 340 339 333 335 337 334 336 336 339 339 337 334
Wind_Speed
11 15 11 10 9 9 9 12 13 12 12 11 13 11 10 10 10 10 10 10 10 10 9 9 8 6 5 4 5 5 5 4 5 7 8 9 9 8 5 5 4 14 12
16 16 11 10 10 9 10 11 12 11 12 12 11 11 10 9 10 10 9 9 8 8 8 8 7 6 5 4 4 4 2 2 4 5 7 9 9 7 6 10 15 12 11
15 15 14 10 10 10 10 11 11 11 10 10 10 9 10 10 10 10 10 9 9 8 7 7 7 6 5 4 4 3 2 3 5 6 9 8 11 9 7 9 11 10 10
13 12 13 10 10 10 10 10 11 12 10 11 10 9 9 9 9 10 9 10 9 8 8 7 6 6 5 4 3 2 3 4 6 9 9 10 11 13 9 8 8 8 8
11 12 15 11 9 10 10 10 10 12 11 11 10 11 10 9 9 8 8 8 9 9 9 7 7 6 6 5 4 4 5 6 9 12 12 10 8 14 12 9 10 8 4
12 13 14 11 9 10 11 10 10 10 12 12 12 11 10 10 10 10 10 9 9 10 9 9 7 6 6 5 5 5 6 7 10 14 10 5 6 15 13 8 9 8 7
11 15 14 10 9 10 10 11 10 10 10 11 12 11 11 11 10 10 10 10 10 9 9 8 8 7 6 6 6 6 7 8 12 14 10 6 15 17 14 10 9 8 7
10 12 13 11 8 8 8 8 7 8 9 10 10 10 11 10 10 10 10 10 10 10 10 9 8 8 7 6 7 7 7 9 11 13 7 4 21 18 15 12 10 9 7
9 11 10 10 9 7 8 9 9 8 7 7 7 8 9 10 10 10 9 9 10 10 10 10 10 9 8 8 7 7 8 10 12 12 10 4 18 18 16 14 12 10 8
9 11 11 9 13 10 11 10 10 10 10 9 8 9 9 10 11 11 10 11 11 11 11 11 11 11 9 9 9 9 9 11 13 15 13 10 20 17 16 15 13 11 9
5 3 7 7 13 11 12 16 13 10 10 9 10 11 9 11 14 15 14 11 15 13 12 11 11 11 11 11 11 12 11 9 13 12 9 20 20 18 16 15 13 12 10
3 4 10 6 10 7 5 14 10 11 10 11 12 12 11 12 12 12 15 19 17 15 13 13 13 12 11 11 11 15 9 12 12 11 5 20 20 18 17 16 15 13 12
12 7 13 10 5 9 12 5 6 5 8 9 12 11 11 10 10 10 8 9 10 14 10 14 12 11 14 12 12 12 14 13 10 8 11 19 20 19 18 17 16 15 13
10 10 10 13 9 10 9 10 6 6 3 9 11 13 8 7 9 9 7 11 10 9 13 12 10 14 15 15 15 13 11 9 7 6 7 18 19 19 18 18 18 16 15
10 11 11 11 8 8 10 9 9 8 5 13 6 9 9 10 9 10 9 10 10 10 10 12 12 10 13 13 12 12 13 12 12 8 5 17 19 19 18 19 18 18 16
10 11 12 11 8 10 8 11 10 9 9 9 10 10 11 10 8 10 10 10 11 11 11 10 10 10 10 11 12 14 13 11 12 11 10 11 17 19 19 18 19 19 18
10 11 11 11 10 9 9 9 9 10 10 10 10 10 11 10 11 10 9 9 9 10 12 11 11 9 10 9 11 11 10 12 12 11 10 7 11 15 17 18 18 18 18
11 11 11 11 13 11 11 10 9 10 11 11 10 10 12 13 10 7 9 11 10 9 9 11 10 10 11 11 10 10 10 11 12 11 12 12 9 11 15 20 20 19 18
11 11 12 12 12 13 13 11 11 11 10 11 12 10 12 13 14 12 10 10 9 7 8 10 11 10 8 8 11 11 10 10 10 12 13 12 10 8 8 19 21 20 19
11 11 12 11 12 13 11 10 9 9 10 11 11 12 12 13 14 10 12 12 11 11 8 9 11 11 12 9 12 12 9 10 10 9 11 8 10 5 9 12 13 12 17
12 12 12 13 12 11 10 10 9 9 10 12 11 12 13 13 16 11 12 11 10 12 12 10 11 12 12 11 11 11 10 11 8 10 11 11 9 8 7 5 8 7 11
12 13 13 12 12 11 10 10 10 10 11 12 13 14 14 15 13 13 13 12 10 13 13 11 10 11 11 12 13 11 12 11 11 13 12 12 9 7 10 8 8 6 7
13 12 13 12 13 12 13 10 9 10 10 11 12 12 13 15 15 13 13 13 13 13 12 13 12 15 13 10 15 12 11 11 8 10 13 12 11 8 8 8 9 9 7
12 13 12 12 12 12 13 12 14 13 14 12 12 12 12 15 15 14 14 14 15 14 14 12 12 12 13 13 11 11 14 13 7 4 5 5 10 6 8 9 7 7 7
13 12 13 12 12 12 6 8 7 12 13 13 14 15 14 13 14 17 16 14 15 14 16 15 12 13 12 13 11 10 9 11 11 10 8 7 9 12 9 7 6 6 6
14 14 14 14 12 12 9 9 11 11 14 13 14 12 14 13 13 13 15 14 15 15 16 15 15 14 13 12 12 12 12 10 11 9 12 11 10 10 5 7 6 5 6
Wind_Direction
117 125 124 128 135 138 146 146 148 151 149 154 160 170 165 154 146 145 143 141 140 140 141 143 147 139 145 125 93 78 72 75 92 105 105 106 106 104 88 45 315 77 76
126 131 128 130 140 143 145 148 150 151 153 158 167 169 166 162 155 149 151 149 148 146 145 144 148 149 153 137 116 108 115 156 149 146 150 139 122 110 89 61 51 83 84
110 125 147 133 142 145 142 143 149 150 154 161 165 175 170 165 167 158 158 157 159 156 154 155 158 161 163 153 148 149 186 193 190 203 206 207 129 126 106 90 91 95 92
113 131 141 134 139 146 141 139 146 149 156 165 169 172 175 172 169 168 165 165 167 168 170 169 168 173 176 170 173 201 217 210 210 233 241 233 137 139 130 118 111 108 109
124 141 115 133 136 146 147 146 149 151 157 171 175 173 174 176 175 173 172 173 176 177 177 178 185 185 192 183 191 222 235 228 230 233 239 278 134 137 140 141 142 125 72
122 117 131 137 145 149 152 154 152 158 162 169 174 180 180 183 180 177 177 181 187 187 186 183 190 194 202 203 208 222 237 242 246 239 226 141 93 141 141 148 115 115 118
119 111 141 144 157 161 158 161 163 166 169 175 178 182 186 188 187 187 186 185 193 196 198 196 193 201 206 214 223 232 241 245 256 269 205 193 115 142 143 152 142 144 143
117 125 131 144 160 166 170 171 173 174 178 182 186 186 188 191 196 196 194 192 199 201 196 200 204 197 210 217 221 234 241 250 258 253 284 155 138 143 149 162 161 163 160
126 131 143 165 167 180 186 185 185 188 190 198 198 196 196 196 200 203 205 205 204 205 201 197 202 211 208 223 230 233 240 248 267 279 261 196 143 144 156 167 172 174 175
159 155 161 182 174 192 184 195 203 203 199 200 205 206 204 205 210 210 206 209 212 213 209 207 204 206 216 226 236 238 241 250 254 264 262 126 143 151 163 173 178 181 185
45 178 253 182 181 187 200 176 182 202 219 218 218 216 206 232 216 220 218 220 199 207 212 216 219 215 217 226 229 232 239 247 245 233 250 143 144 155 170 178 182 186 188
356 347 2 37 0 308 234 128 187 200 210 216 221 222 217 232 237 232 212 198 193 202 210 216 218 218 225 242 213 218 226 238 247 254 242 145 148 161 177 183 188 191 192
5 355 357 6 326 300 299 241 155 210 203 206 216 226 225 231 227 235 243 190 208 202 223 208 212 228 230 237 246 194 213 218 239 252 124 149 153 164 182 187 191 194 196
8 21 336 1 347 329 310 301 258 178 252 230 187 203 231 235 245 242 236 239 217 215 211 239 215 213 222 239 250 263 256 256 266 261 158 158 159 166 186 192 194 197 199
4 7 352 339 345 328 309 289 287 288 220 232 182 202 214 228 240 245 234 254 251 240 224 225 229 242 215 233 241 242 258 264 265 270 264 164 164 170 186 196 198 200 202
2 2 353 337 339 339 317 311 300 280 274 264 271 268 204 221 238 250 237 240 254 255 255 246 232 238 231 247 229 233 249 252 254 256 262 172 175 174 183 199 201 203 205
355 0 348 329 344 326 318 309 295 284 271 265 263 254 240 241 218 259 265 242 242 255 261 257 264 243 249 248 244 258 234 237 254 258 250 240 174 183 185 197 204 207 209
354 350 341 341 329 339 320 307 296 286 291 274 260 261 250 235 224 244 251 259 247 235 249 260 248 245 247 235 244 245 235 230 241 236 246 249 178 184 189 196 200 208 211
350 347 338 339 334 330 317 305 290 278 267 265 275 265 270 246 240 210 224 264 265 259 236 239 241 251 260 257 250 235 241 250 243 235 236 237 234 174 188 196 199 204 208
345 341 334 331 330 328 309 298 285 276 269 263 255 259 238 270 248 238 238 220 226 254 224 238 234 234 241 239 249 258 235 234 224 237 253 235 229 206 215 165 195 209 211
342 335 332 326 330 328 313 317 300 301 304 298 288 261 256 229 262 262 237 242 221 249 256 223 227 229 250 247 247 250 256 251 237 254 247 217 198 200 189 198 181 212 197
334 331 328 323 322 319 309 326 302 296 289 290 293 299 304 300 238 249 267 257 231 244 227 234 232 240 229 232 253 244 252 241 219 209 234 249 196 164 204 204 186 212 185
327 330 322 321 315 311 309 302 297 291 276 269 259 250 247 252 262 257 229 250 255 239 249 214 216 228 241 232 220 244 247 248 245 221 208 230 215 206 226 181 186 218 232
323 324 324 319 315 302 319 313 319 306 291 286 288 285 294 295 290 271 246 230 237 254 246 241 214 225 234 244 248 221 252 275 305 250 248 290 296 218 221 233 175 202 224
332 327 333 323 314 306 301 294 297 303 299 311 308 308 297 287 273 274 272 260 233 233 249 254 249 207 218 239 243 245 242 237 246 246 257 204 192 215 210 211 218 181 177
326 339 333 326 316 311 292 288 279 281 286 289 289 288 294 291 289 265 243 247 267 241 237 242 238 234 224 230 237 239 236 233 241 249 245 245 210 195 175 181 182 189 168